2022-08-18 00:09:17 r, 20.46m,0000000001Hz,0000825560c,0000001.792s, 033.8C,00002191
2022-08-18 00:19:18 r, 20.41m,0000000000Hz,0000788775c,0000001.712s, 033.8C,00002191
2022-08-18 00:29:16 r, 20.46m,0000000000Hz,0000831128c,0000001.804s, 033.8C,00002191
2022-08-18 00:39:16 r, 20.34m,0000000001Hz,0000738185c,0000001.602s, 034.1C,00002191
2022-08-18 00:49:19 r, 20.20m,0000000000Hz,0000658224c,0000001.428s, 034.1C,00002191
2022-08-18 00:59:16 r, 20.32m,0000000001Hz,0000728614c,0000001.581s, 034.1C,00002191
2022-08-18 01:09:19 r, 19.97m,0000000001Hz,0000530791c,0000001.152s, 034.1C,00002191
2022-08-18 01:19:17 r, 19.61m,0000000001Hz,0000380050c,0000000.825s, 034.4C,00002191
2022-08-18 01:29:16 r, 19.46m,0000000001Hz,0000333014c,0000000.723s, 034.1C,00002191
2022-08-18 01:39:19 r, 19.23m,0000000002Hz,0000269622c,0000000.585s, 034.1C,00002191
2022-08-18 01:49:17 r, 19.65m,0000000002Hz,0000395412c,0000000.858s, 033.8C,00002191
2022-08-18 01:59:16 r, 19.48m,0000000002Hz,0000338796c,0000000.735s, 033.5C,00002191
2022-08-18 02:09:17 r, 19.50m,0000000001Hz,0000345650c,0000000.750s, 032.8C,00002191
2022-08-18 02:19:18 r, 19.96m,0000000001Hz,0000522872c,0000001.135s, 032.2C,00002191
2022-08-18 02:29:16 r, 19.50m,0000000002Hz,0000345660c,0000000.750s, 031.9C,00002191
2022-08-18 02:39:18 r, 19.28m,0000000002Hz,0000281132c,0000000.610s, 031.5C,00002191
2022-08-18 02:49:17 r, 19.42m,0000000002Hz,0000319681c,0000000.694s, 031.5C,00002191
2022-08-18 02:59:16 r, 19.62m,0000000001Hz,0000381999c,0000000.829s, 031.5C,00002191
2022-08-18 03:09:17 r, 19.42m,0000000002Hz,0000318856c,0000000.692s, 031.5C,00002191
2022-08-18 03:19:19 r, 19.56m,0000000001Hz,0000362821c,0000000.787s, 031.5C,00002191
2022-08-18 03:29:16 r, 19.57m,0000000001Hz,0000366562c,0000000.795s, 031.5C,00002191
2022-08-18 03:39:16 r, 19.87m,0000000001Hz,0000483023c,0000001.048s, 031.2C,00002191
2022-08-18 03:49:17 r, 20.25m,0000000001Hz,0000689462c,0000001.496s, 030.9C,00002191
2022-08-18 03:59:16 r, 18.81m,0000000001Hz,0000183273c,0000000.398s, 030.9C,00002191
2022-08-18 04:09:19 r, 19.50m,0000000002Hz,0000346606c,0000000.752s, 030.6C,00002191
2022-08-18 04:19:17 r, 20.03m,0000000001Hz,0000561403c,0000001.218s, 030.6C,00002191
2022-08-18 04:29:16 r, 20.31m,0000000001Hz,0000725618c,0000001.575s, 030.2C,00002191
2022-08-18 04:39:17 r, 20.34m,0000000001Hz,0000748782c,0000001.625s, 029.9C,00002191
2022-08-18 04:49:19 r, 20.00m,0000000001Hz,0000545277c,0000001.183s, 029.9C,00002191
2022-08-18 04:59:16 r, 19.47m,0000000001Hz,0000336235c,0000000.730s, 029.6C,00002191
2022-08-18 05:09:16 r, 19.92m,0000000000Hz,0000504261c,0000001.094s, 029.6C,00002191
2022-08-18 05:19:19 r, 19.69m,0000000001Hz,0000409767c,0000000.889s, 029.6C,00002191
2022-08-18 05:29:16 r, 19.58m,0000000001Hz,0000373364c,0000000.810s, 029.3C,00002191
2022-08-18 05:39:16 r, 18.70m,0000000003Hz,0000165016c,0000000.358s, 029.3C,00002191
2022-08-18 05:49:17 r, 16.87m,0000000014Hz,0000030835c,0000000.067s, 029.3C,00002191
2022-08-18 05:59:16 r, 14.77m,0000000103Hz,0000004420c,0000000.010s, 029.3C,00002191
2022-08-18 06:09:19 r, 12.91m,0000000576Hz,0000000000c,0000000.000s, 029.0C,00002191
2022-08-18 06:19:17 r, 11.47m,0000002190Hz,0000000000c,0000000.000s, 029.0C,00002191
2022-08-18 06:29:16 r, 10.47m,0000005475Hz,0000000000c,0000000.000s, 029.0C,00002191
2022-08-18 06:39:17 r, 09.60m,0000012218Hz,0000000000c,0000000.000s, 029.0C,00002191
2022-08-18 06:49:18 r, 08.84m,0000024674Hz,0000000000c,0000000.000s, 029.0C,00002191
2022-08-18 06:59:16 r, 08.29m,0000040709Hz,0000000000c,0000000.000s, 029.0C,00002191
2022-08-18 07:09:16 r, 07.69m,0000070888Hz,0000000000c,0000000.000s, 029.0C,00002191
2022-08-18 07:19:19 r, 07.04m,0000128962Hz,0000000000c,0000000.000s, 029.0C,00002191
2022-08-18 07:29:16 r, 06.45m,0000222045Hz,0000000000c,0000000.000s, 028.6C,00002191
2022-08-18 07:39:16 r, 05.83m,0000391541Hz,0000000000c,0000000.000s, 029.0C,00002191
2022-08-18 07:49:19 r, 00.00m,0000543186Hz,0000000000c,0000000.000s, 029.0C,00002191
2022-08-18 07:59:16 r, 00.00m,0000596599Hz,0000000000c,0000000.000s, 029.3C,00002191
2022-08-18 08:09:16 r, 00.00m,0000596419Hz,0000000000c,0000000.000s, 029.6C,00002191
2022-08-18 08:19:17 r, 00.00m,0000596511Hz,0000000000c,0000000.000s, 029.9C,00002191
2022-08-18 08:29:17 r, 06.16m,0000291583Hz,0000000000c,0000000.000s, 029.9C,00002191
2022-08-18 08:39:17 r, 05.87m,0000380649Hz,0000000000c,0000000.000s, 029.6C,00002191
2022-08-18 08:49:18 r, 05.87m,0000379443Hz,0000000000c,0000000.000s, 029.6C,00002191
2022-08-18 08:59:17 r, 00.00m,0000527535Hz,0000000000c,0000000.000s, 029.9C,00002191
2022-08-18 09:09:17 r, 00.00m,0000550585Hz,0000000000c,0000000.000s, 029.9C,00002191
2022-08-18 09:19:17 r, 00.00m,0000594950Hz,0000000000c,0000000.000s, 030.2C,00002191
2022-08-18 09:29:17 r, 05.82m,0000397661Hz,0000000000c,0000000.000s, 030.2C,00002191
2022-08-18 09:39:17 r, 06.24m,0000271640Hz,0000000000c,0000000.000s, 029.9C,00002191
2022-08-18 09:49:19 r, 05.90m,0000369088Hz,0000000000c,0000000.000s, 029.9C,00002191
2022-08-18 09:59:17 r, 05.93m,0000360247Hz,0000000000c,0000000.000s, 029.9C,00002191
2022-08-18 10:09:17 r, 00.00m,0000435854Hz,0000000000c,0000000.000s, 029.9C,00002191
2022-08-18 10:19:17 r, 00.00m,0000596570Hz,0000000000c,0000000.000s, 030.2C,00002191
2022-08-18 10:29:17 r, 00.00m,0000596409Hz,0000000000c,0000000.000s, 029.9C,00002191
2022-08-18 10:39:17 r, 00.00m,0000596428Hz,0000000000c,0000000.000s, 030.2C,00002191
2022-08-18 10:49:17 r, 00.00m,0000596429Hz,0000000000c,0000000.000s, 030.6C,00002191
2022-08-18 10:59:17 r, 00.00m,0000596401Hz,0000000000c,0000000.000s, 030.9C,00002191
2022-08-18 11:09:17 r, 00.00m,0000596388Hz,0000000000c,0000000.000s, 031.2C,00002191
2022-08-18 11:19:18 r, 00.00m,0000596225Hz,0000000000c,0000000.000s, 031.9C,00002191
2022-08-18 11:29:17 r, 00.00m,0000596120Hz,0000000000c,0000000.000s, 032.5C,00002191
2022-08-18 11:39:17 r, 00.00m,0000596051Hz,0000000000c,0000000.000s, 033.1C,00002191
2022-08-18 11:49:19 r, 00.00m,0000595979Hz,0000000000c,0000000.000s, 034.1C,00002191
2022-08-18 11:59:17 r, 00.00m,0000595905Hz,0000000000c,0000000.000s, 034.4C,00002191
2022-08-18 12:09:17 r, 00.00m,0000595921Hz,0000000000c,0000000.000s, 034.8C,00002191
2022-08-18 12:19:19 r, 00.00m,0000595936Hz,0000000000c,0000000.000s, 035.1C,00002191
2022-08-18 12:29:17 r, 00.00m,0000595749Hz,0000000000c,0000000.000s, 035.7C,00002191
2022-08-18 12:39:17 r, 00.00m,0000595783Hz,0000000000c,0000000.000s, 035.7C,00002191
2022-08-18 12:49:17 r, 00.00m,0000595830Hz,0000000000c,0000000.000s, 036.0C,00002191
2022-08-18 12:59:19 r, 00.00m,0000595826Hz,0000000000c,0000000.000s, 036.0C,00002191
2022-08-18 13:09:17 r, 00.00m,0000595944Hz,0000000000c,0000000.000s, 035.7C,00002191
2022-08-18 13:19:18 r, 00.00m,0000595832Hz,0000000000c,0000000.000s, 035.7C,00002191
2022-08-18 13:29:17 r, 00.00m,0000595902Hz,0000000000c,0000000.000s, 035.4C,00002191
2022-08-18 13:39:17 r, 00.00m,0000595946Hz,0000000000c,0000000.000s, 035.4C,00002191
2022-08-18 13:49:19 r, 00.00m,0000595959Hz,0000000000c,0000000.000s, 035.7C,00002191
2022-08-18 13:59:17 r, 00.00m,0000595793Hz,0000000000c,0000000.000s, 035.7C,00002191
2022-08-18 14:09:17 r, 00.00m,0000595815Hz,0000000000c,0000000.000s, 035.7C,00002191
2022-08-18 14:19:19 r, 00.00m,0000595856Hz,0000000000c,0000000.000s, 035.7C,00002191
2022-08-18 14:29:17 r, 00.00m,0000595864Hz,0000000000c,0000000.000s, 036.0C,00002191
2022-08-18 14:39:17 r, 00.00m,0000595669Hz,0000000000c,0000000.000s, 036.7C,00002191
2022-08-18 14:49:17 r, 00.00m,0000595483Hz,0000000000c,0000000.000s, 038.0C,00002191
2022-08-18 14:59:18 r, 00.00m,0000595337Hz,0000000000c,0000000.000s, 039.3C,00002191
2022-08-18 15:09:17 r, 00.00m,0000595295Hz,0000000000c,0000000.000s, 039.6C,00002191
2022-08-18 15:19:18 r, 00.00m,0000595266Hz,0000000000c,0000000.000s, 039.9C,00002191
2022-08-18 15:29:17 r, 00.00m,0000595358Hz,0000000000c,0000000.000s, 039.3C,00002191
2022-08-18 15:39:17 r, 00.00m,0000595550Hz,0000000000c,0000000.000s, 038.3C,00002191
2022-08-18 15:49:19 r, 06.14m,0000298981Hz,0000000000c,0000000.000s, 037.0C,00002191
2022-08-18 15:59:18 r, 00.00m,0000435912Hz,0000000000c,0000000.000s, 036.0C,00002191
2022-08-18 16:09:17 r, 00.00m,0000507412Hz,0000000000c,0000000.000s, 034.8C,00002191
2022-08-18 16:19:19 r, 06.00m,0000337217Hz,0000000000c,0000000.000s, 033.8C,00002191
2022-08-18 16:29:18 r, 06.45m,0000221974Hz,0000000000c,0000000.000s, 033.1C,00002191
2022-08-18 16:39:17 r, 00.00m,0000596184Hz,0000000000c,0000000.000s, 032.8C,00002191
2022-08-18 16:49:18 r, 00.00m,0000596138Hz,0000000000c,0000000.000s, 032.8C,00002191
2022-08-18 16:59:18 r, 00.00m,0000596195Hz,0000000000c,0000000.000s, 032.8C,00002191
2022-08-18 17:09:17 r, 00.00m,0000596111Hz,0000000000c,0000000.000s, 033.1C,00002191
2022-08-18 17:19:17 r, 05.99m,0000338801Hz,0000000000c,0000000.000s, 033.5C,00002191
2022-08-18 17:29:17 r, 06.02m,0000329808Hz,0000000000c,0000000.000s, 032.8C,00002191
2022-08-18 17:39:17 r, 06.64m,0000186195Hz,0000000000c,0000000.000s, 032.8C,00002191
2022-08-18 17:49:17 r, 06.65m,0000185025Hz,0000000000c,0000000.000s, 032.2C,00002191
2022-08-18 17:59:19 r, 06.18m,0000285617Hz,0000000000c,0000000.000s, 032.2C,00002191
2022-08-18 18:09:17 r, 06.18m,0000285480Hz,0000000000c,0000000.000s, 031.5C,00002191
2022-08-18 18:19:17 r, 07.25m,0000106516Hz,0000000000c,0000000.000s, 031.5C,00002191
2022-08-18 18:29:18 r, 06.86m,0000152483Hz,0000000000c,0000000.000s, 030.9C,00002191
2022-08-18 18:39:17 r, 00.00m,0000537014Hz,0000000000c,0000000.000s, 030.6C,00002191
2022-08-18 18:49:19 r, 05.94m,0000355725Hz,0000000000c,0000000.000s, 030.6C,00002191
2022-08-18 18:59:18 r, 06.27m,0000262737Hz,0000000000c,0000000.000s, 030.2C,00002191
2022-08-18 19:09:17 r, 06.34m,0000247214Hz,0000000000c,0000000.000s, 030.2C,00002191
2022-08-18 19:19:18 r, 06.61m,0000191840Hz,0000000000c,0000000.000s, 030.2C,00002191
2022-08-18 19:29:19 r, 06.80m,0000161389Hz,0000000000c,0000000.000s, 030.2C,00002191
2022-08-18 19:39:17 r, 06.47m,0000219363Hz,0000000000c,0000000.000s, 030.6C,00002191
2022-08-18 19:49:17 r, 06.15m,0000294395Hz,0000000000c,0000000.000s, 030.9C,00002191
2022-08-18 19:59:20 r, 06.27m,0000263819Hz,0000000000c,0000000.000s, 031.2C,00002191
2022-08-18 20:09:17 r, 06.77m,0000165962Hz,0000000000c,0000000.000s, 031.2C,00002191
2022-08-18 20:19:17 r, 07.39m,0000093494Hz,0000000000c,0000000.000s, 031.2C,00002191
2022-08-18 20:29:18 r, 07.86m,0000060799Hz,0000000000c,0000000.000s, 030.9C,00002191
2022-08-18 20:39:17 r, 08.76m,0000026524Hz,0000000000c,0000000.000s, 030.9C,00002191
2022-08-18 20:49:19 r, 10.46m,0000005550Hz,0000000000c,0000000.000s, 030.9C,00002191
2022-08-18 20:59:18 r, 11.95m,0000001401Hz,0000000000c,0000000.000s, 030.6C,00002191
2022-08-18 21:09:17 r, 14.30m,0000000161Hz,0000000000c,0000000.000s, 030.9C,00002191
2022-08-18 21:19:18 r, 16.16m,0000000029Hz,0000015974c,0000000.035s, 030.9C,00002191
2022-08-18 21:29:18 r, 17.82m,0000000007Hz,0000073916c,0000000.160s, 030.9C,00002191
2022-08-18 21:39:17 r, 19.11m,0000000002Hz,0000241103c,0000000.523s, 030.6C,00002191
2022-08-18 21:49:17 r, 19.94m,0000000001Hz,0000517095c,0000001.122s, 030.6C,00002191
2022-08-18 21:59:20 r, 20.20m,0000000001Hz,0000655887c,0000001.423s, 030.6C,00002191
2022-08-18 22:09:17 r, 20.57m,0000000001Hz,0000925312c,0000002.008s, 030.6C,00002191
2022-08-18 22:19:17 r, 20.12m,0000000000Hz,0000614259c,0000001.333s, 030.6C,00002191
2022-08-18 22:29:20 r, 20.47m,0000000001Hz,0000837927c,0000001.818s, 030.6C,00002191
2022-08-18 22:39:17 r, 20.41m,0000000001Hz,0000795762c,0000001.727s, 030.6C,00002191
2022-08-18 22:49:17 r, 20.48m,0000000001Hz,0000848714c,0000001.842s, 030.6C,00002191
2022-08-18 22:59:18 r, 20.82m,0000000000Hz,0001155239c,0000002.507s, 030.6C,00002191
2022-08-18 23:09:17 r, 20.92m,0000000000Hz,0001262363c,0000002.740s, 030.9C,00002191
2022-08-18 23:19:20 r, 20.75m,0000000000Hz,0001077458c,0000002.338s, 030.9C,00002191
2022-08-18 23:29:18 r, 20.35m,0000000000Hz,0000750049c,0000001.628s, 030.9C,00002191
2022-08-18 23:39:17 r, 20.65m,0000000000Hz,0000997915c,0000002.166s, 030.9C,00002191
2022-08-18 23:49:18 r, 20.13m,0000000000Hz,0000615253c,0000001.335s, 030.9C,00002191
2022-08-18 23:59:20 r, 20.30m,0000000001Hz,0000717669c,0000001.557s, 030.9C,00002191
